Location: Cuzcurrita-R�o Tir�n
(42.5415°N, 2.9642°W)
Time: 04:16:05
(UTC+00:00)

CZ-2D R/B - Pass Details

Date: 27 February 2020
Orbit: 521 x 539 km, 97.4° (Epoch: 29 March)

Event Time Altitude Azimuth Distance (km) Brightness Sun altitude
Rises 19:10:30 0° 179° (S) 2,681 6.8 -14.1°
Reaches altitude 10° 19:12:39 10° 184° (S) 1,795 6.0 -14.4°
Maximum altitude 19:16:25 50° 261° (W) 693 4.2 -15.1°
Drops below altitude 10° 19:20:14 10° 337° (NNW) 1,806 6.3 -15.8°
Sets 19:22:24 0° 343° (NNW) 2,701 7.1 -16.2°
